Location: Bayshore Village Mobile Home Park
(26.6945°N, 81.8642°W)
Time: 16:18:44
(UTC+00:00)

Lacrosse 5 rocket - Pass Details

Date: 17 June 2021
Orbit: 459 x 634 km, 57.0° (Epoch: 26 July)

Event Time Altitude Azimuth Distance (km) Brightness Sun altitude
Rises 03:07:43 0° 251° (WSW) 2,578 5.0 -29.5°
Reaches altitude 10° 03:10:37 10° 274° (W) 1,665 4.2 -29.9°
Maximum altitude 03:12:56 16° 312° (NW) 1,332 4.0 -30.2°
Drops below altitude 10° 03:15:12 10° 351° (N) 1,628 4.4 -30.5°
Sets 03:18:00 0° 15° (NNE) 2,489 5.2 -30.8°
